Hourly Data Report for June 16, 2021

MANIWAKI AIRPORT
QUEBEC
Current Station Operator: ECCC - MSC

46°16'29.000" N
75°59'31.000" W
199.70 m
7034482
71721
WMJ

Download Data

Hourly Data (June 2021)
Hourly Data Report for June 16, 2021
TIME
LST
Temp Definition
°C
Dew Point Definition
°C
Rel Hum Definition
%
Precip. Amount Definition
mm

Wind Dir Definition
10's deg

Wind Spd Definition
km/h
Visibility Definition
km
Stn Press Definition
kPa
Hmdx Definition


Wind Chill Definition


Weather Definition


00:00 11.4 3.4 58 0.0 35 10   98.94     LegendNANA
01:00 11.1 3.9 61 0.0 34 12   98.94     LegendNANA
02:00 10.2 3.8 64 0.0 35 12   98.97     LegendNANA
03:00 9.6 3.5 66 0.0 33 13   98.99     LegendNANA
04:00 7.9 3.0 71 0.0 33 8   98.98     LegendNANA
05:00 7.8 2.9 71 0.0 30 7   99.00     LegendNANA
06:00 9.0 3.0 66 0.0 32 5   98.98     LegendNANA
07:00 10.0 3.6 64 0.0 33 10   98.97     LegendNANA
08:00 12.0 4.7 61 0.0 32 13   98.97     LegendNANA
09:00 13.6 4.7 55 0.0 31 10   98.94     LegendNANA
10:00 15.8 5.4 50 0.0 34 10   98.90     LegendNANA
11:00 16.4 4.2 44 0.0 32 14   98.87     LegendNANA
12:00 17.9 4.0 40 0.0 30 16   98.82     LegendNANA
13:00 18.6 2.3 34 0.0 30 19   98.79     LegendNANA
14:00 19.3 3.5 35 0.0 34 18   98.77     LegendNANA
15:00 19.3 2.5 33 0.0 29 19   98.75     LegendNANA
16:00 18.8 1.8 32 0.0 32 15   98.74     LegendNANA
17:00 19.9 2.1 31 0.0 31 15   98.70     LegendNANA
18:00 18.6 1.9 33 0.0 31 14   98.73     LegendNANA
19:00 17.7 2.2 35 0.0 31 11   98.75     LegendNANA
20:00 13.6 4.3 53 0.0 26 4   98.75     LegendNANA
21:00 10.1 5.6 73 0.0 28 6   98.81     LegendNANA
22:00 12.6 5.4 62 0.0 27 8   98.81     LegendNANA
23:00 11.7 5.2 65 0.0 27 7   98.82     LegendNANA

Notes on Data Quality.

Legend

  • E = Estimated
  • M = Missing
  • NA = Not Available*
  • [empty] = Indicates an unobserved value
Date modified: